Вернуться в каталог

DELTA 1 DEB

АктивенSSO
NORAD 10653·DEBRIS·🇺🇸 United States

Запущен Jul 29, 1976 с Vandenberg Space Force Base

Loading…

Ближайшие Пролёты (ближайшие 24 часа)

TLE

СвежийSource: Space-Track

Эпоха: Sep 13, 2026, 21:00 UTC

1 10653U 76077P   26256.87542515  .00000056  00000-0  91331-3 0  9991
2 10653 102.6596  17.2845 0127857 267.0715 214.0579 12.24296206239984

Отслеживайте DELTA 1 DEB в реальном времени с AllMySat

Download on the App Store